Time,TemperatureF,DewpointF,PressureIn,WindDirection,WindDirectionDegrees,WindSpeedMPH,WindSpeedGustMPH,Humidity,HourlyPrecipIn,Conditions,Clouds,dailyrainin,SoftwareType,DateUTC
2013-01-28 00:04:00,29.0,16.0,-100.00,ESE,115,0.0,1.0,60,0.00,,,-99.99,,2013-01-28 05:04:00,
2013-01-28 00:11:00,29.0,16.0,-100.00,NE,45,1.0,2.0,60,0.00,,,-99.99,,2013-01-28 05:11:00,
2013-01-28 00:21:00,29.0,16.0,-100.00,NE,45,1.0,2.0,60,0.00,,,-99.99,,2013-01-28 05:21:00,
2013-01-28 00:32:00,29.0,16.0,-100.00,NE,45,1.0,2.0,60,0.00,,,-99.99,,2013-01-28 05:32:00,
2013-01-28 00:42:00,29.0,16.0,-100.00,North,5,1.0,1.0,60,0.00,,,-99.99,,2013-01-28 05:42:00,
2013-01-28 00:52:00,29.0,16.0,-100.00,ENE,70,0.0,0.0,60,0.00,,,-99.99,,2013-01-28 05:52:00,
2013-01-28 01:02:00,29.0,16.0,-100.00,ENE,70,0.0,0.0,60,0.00,,,-99.99,,2013-01-28 06:02:00,
2013-01-28 01:11:00,29.0,16.0,-100.00,ENE,70,0.0,0.0,60,0.00,,,-99.99,,2013-01-28 06:11:00,
2013-01-28 01:22:00,29.0,17.0,-100.00,West,260,0.0,0.0,60,0.00,,,-99.99,,2013-01-28 06:22:00,
2013-01-28 01:32:00,29.0,17.0,-100.00,West,260,0.0,0.0,60,0.00,,,-99.99,,2013-01-28 06:32:00,
2013-01-28 01:42:00,29.0,17.0,-100.00,North,10,0.0,1.0,61,0.00,,,-99.99,,2013-01-28 06:42:00,
2013-01-28 01:52:00,29.0,17.0,-100.00,North,10,0.0,1.0,61,0.00,,,-99.99,,2013-01-28 06:52:00,
2013-01-28 02:03:00,29.0,17.0,-100.00,North,10,0.0,1.0,61,0.00,,,-99.99,,2013-01-28 07:03:00,
2013-01-28 02:11:00,29.0,17.0,-100.00,SW,215,0.0,0.0,63,0.00,,,-99.99,,2013-01-28 07:11:00,
2013-01-28 02:21:00,29.0,18.0,-100.00,NW,315,0.0,0.0,63,0.00,,,-99.99,,2013-01-28 07:21:00,
2013-01-28 02:32:00,29.0,18.0,-100.00,NW,315,0.0,0.0,63,0.00,,,-99.99,,2013-01-28 07:32:00,
2013-01-28 02:42:00,29.0,18.0,-100.00,NW,315,0.0,0.0,63,0.00,,,-99.99,,2013-01-28 07:42:00,
2013-01-28 02:52:00,29.0,18.0,-100.00,NW,315,0.0,0.0,63,0.00,,,-99.99,,2013-01-28 07:52:00,
2013-01-28 03:01:00,29.0,18.0,-100.00,NW,315,0.0,0.0,63,0.00,,,-99.99,,2013-01-28 08:01:00,
2013-01-28 03:11:00,29.0,18.0,-100.00,ENE,60,0.0,1.0,63,0.00,,,-99.99,,2013-01-28 08:11:00,
2013-01-28 03:21:00,29.0,18.0,-100.00,NE,35,0.0,0.0,63,0.00,,,-99.99,,2013-01-28 08:21:00,
2013-01-28 03:32:00,29.0,18.0,-100.00,NE,35,0.0,0.0,63,0.00,,,-99.99,,2013-01-28 08:32:00,
2013-01-28 03:42:00,29.0,18.0,-100.00,East,80,0.0,0.0,66,0.00,,,-99.99,,2013-01-28 08:42:00,
2013-01-28 03:52:00,28.0,19.0,-100.00,ESE,105,1.0,2.0,68,0.01,,,-99.99,,2013-01-28 08:52:00,
2013-01-28 04:02:00,28.0,19.0,-100.00,ESE,105,1.0,2.0,68,0.01,,,-99.99,,2013-01-28 09:02:00,
2013-01-28 04:12:00,28.0,20.0,-100.00,East,95,2.0,3.0,70,0.00,,,-99.99,,2013-01-28 09:12:00,
2013-01-28 04:22:00,28.0,21.0,-100.00,SE,135,0.0,1.0,75,0.00,,,-99.99,,2013-01-28 09:22:00,
2013-01-28 04:32:00,28.0,21.0,-100.00,SE,135,0.0,1.0,75,0.00,,,-99.99,,2013-01-28 09:32:00,
2013-01-28 04:42:00,28.0,21.0,-100.00,East,100,1.0,1.0,76,0.01,,,-99.99,,2013-01-28 09:42:00,
2013-01-28 04:52:00,28.0,22.0,-100.00,ENE,60,1.0,1.0,78,0.01,,,-99.99,,2013-01-28 09:52:00,
2013-01-28 05:02:00,28.0,22.0,-100.00,ENE,60,1.0,1.0,78,0.01,,,-99.99,,2013-01-28 10:02:00,
2013-01-28 05:11:00,28.0,23.0,-100.00,East,95,1.0,2.0,80,0.03,,,-99.99,,2013-01-28 10:11:00,
2013-01-28 05:21:00,28.0,23.0,-100.00,East,95,1.0,2.0,80,0.03,,,-99.99,,2013-01-28 10:21:00,
2013-01-28 05:32:00,29.0,24.0,-100.00,East,85,0.0,1.0,84,0.05,,,-99.99,,2013-01-28 10:32:00,
2013-01-28 05:42:00,29.0,25.0,-100.00,ESE,120,0.0,0.0,85,0.03,,,-99.99,,2013-01-28 10:42:00,
2013-01-28 05:51:00,29.0,25.0,-100.00,NNE,30,2.0,2.0,87,0.06,,,-99.99,,2013-01-28 10:51:00,
2013-01-28 06:02:00,29.0,25.0,-100.00,NNE,30,2.0,2.0,87,0.06,,,-99.99,,2013-01-28 11:02:00,
2013-01-28 06:11:00,29.0,25.0,-100.00,SE,130,1.0,2.0,87,0.04,,,-99.99,,2013-01-28 11:11:00,
2013-01-28 06:22:00,29.0,26.0,-100.00,NE,55,1.0,2.0,89,0.01,,,-99.99,,2013-01-28 11:22:00,
2013-01-28 06:32:00,29.0,26.0,-100.00,NE,55,1.0,2.0,89,0.01,,,-99.99,,2013-01-28 11:32:00,
2013-01-28 06:42:00,29.0,26.0,-100.00,ENE,60,0.0,1.0,90,0.00,,,-99.99,,2013-01-28 11:42:00,
2013-01-28 06:52:00,29.0,26.0,-100.00,ENE,60,0.0,0.0,90,0.00,,,-99.99,,2013-01-28 11:52:00,
2013-01-28 07:03:00,29.0,26.0,-100.00,ENE,60,0.0,0.0,90,0.00,,,-99.99,,2013-01-28 12:03:00,
2013-01-28 07:12:00,29.0,27.0,-100.00,ENE,75,1.0,2.0,91,0.01,,,-99.99,,2013-01-28 12:12:00,
2013-01-28 07:23:00,29.0,26.0,-100.00,SE,145,0.0,0.0,91,0.02,,,-99.99,,2013-01-28 12:23:00,
2013-01-28 07:33:00,29.0,26.0,-100.00,SE,145,0.0,0.0,91,0.02,,,-99.99,,2013-01-28 12:33:00,
2013-01-28 07:42:00,29.0,27.0,-100.00,East,80,0.0,1.0,92,0.04,,,-99.99,,2013-01-28 12:42:00,
2013-01-28 07:52:00,29.0,27.0,-100.00,ESE,120,0.0,0.0,92,0.02,,,-99.99,,2013-01-28 12:52:00,
2013-01-28 08:03:00,29.0,27.0,-100.00,ESE,120,0.0,0.0,92,0.02,,,-99.99,,2013-01-28 13:03:00,
2013-01-28 08:12:00,29.0,27.0,-100.00,SE,125,0.0,0.0,92,0.06,,,-99.99,,2013-01-28 13:12:00,
2013-01-28 08:23:00,29.0,27.0,-100.00,ENE,65,1.0,1.0,92,0.01,,,-99.99,,2013-01-28 13:23:00,
2013-01-28 08:33:00,29.0,27.0,-100.00,ENE,65,1.0,1.0,92,0.01,,,-99.99,,2013-01-28 13:33:00,
2013-01-28 08:42:00,30.0,28.0,-100.00,NNE,15,0.0,0.0,93,0.01,,,-99.99,,2013-01-28 13:42:00,
2013-01-28 08:52:00,30.0,28.0,-100.00,NNE,25,0.0,1.0,93,0.00,,,-99.99,,2013-01-28 13:52:00,
2013-01-28 09:03:00,30.0,28.0,-100.00,NNE,25,0.0,1.0,93,0.00,,,-99.99,,2013-01-28 14:03:00,
2013-01-28 09:12:00,30.0,28.0,-100.00,NNE,20,0.0,1.0,92,0.01,,,-99.99,,2013-01-28 14:12:00,
2013-01-28 09:22:00,30.0,28.0,-100.00,ENE,70,0.0,1.0,93,0.00,,,-99.99,,2013-01-28 14:22:00,
2013-01-28 09:33:00,30.0,28.0,-100.00,ENE,70,0.0,1.0,93,0.00,,,-99.99,,2013-01-28 14:33:00,
2013-01-28 09:43:00,30.0,28.0,-100.00,NE,55,0.0,0.0,93,0.00,,,-99.99,,2013-01-28 14:43:00,
2013-01-28 09:52:00,30.0,28.0,-100.00,NE,55,0.0,0.0,93,0.00,,,-99.99,,2013-01-28 14:52:00,
2013-01-28 10:03:00,30.0,29.0,-100.00,East,80,2.0,2.0,93,0.00,,,-99.99,,2013-01-28 15:03:00,
2013-01-28 10:12:00,31.0,29.0,-100.00,SE,140,0.0,0.0,93,0.00,,,-99.99,,2013-01-28 15:12:00,
2013-01-28 10:23:00,31.0,29.0,-100.00,SE,140,0.0,0.0,93,0.00,,,-99.99,,2013-01-28 15:23:00,
2013-01-28 10:33:00,31.0,29.0,-100.00,SE,125,1.0,2.0,93,0.00,,,-99.99,,2013-01-28 15:33:00,
2013-01-28 10:43:00,31.0,29.0,-100.00,NE,45,0.0,0.0,93,0.00,,,-99.99,,2013-01-28 15:43:00,
2013-01-28 10:52:00,31.0,29.0,-100.00,NE,40,0.0,0.0,93,0.00,,,-99.99,,2013-01-28 15:52:00,
2013-01-28 11:04:00,31.0,29.0,-100.00,NE,40,0.0,0.0,93,0.00,,,-99.99,,2013-01-28 16:04:00,
2013-01-28 11:13:00,31.0,30.0,-100.00,WNW,290,0.0,0.0,93,0.00,,,-99.99,,2013-01-28 16:13:00,
2013-01-28 11:22:00,31.0,30.0,-100.00,WNW,290,0.0,0.0,93,0.00,,,-99.99,,2013-01-28 16:22:00,
2013-01-28 11:33:00,32.0,30.0,-100.00,NNE,25,0.0,0.0,93,0.00,,,-99.99,,2013-01-28 16:33:00,
2013-01-28 11:43:00,32.0,30.0,-100.00,East,80,0.0,1.0,93,0.00,,,-99.99,,2013-01-28 16:43:00,
2013-01-28 11:52:00,32.0,30.0,-100.00,East,80,0.0,1.0,93,0.00,,,-99.99,,2013-01-28 16:52:00,
2013-01-28 12:02:00,32.0,30.0,-100.00,East,80,0.0,0.0,93,0.00,,,-99.99,,2013-01-28 17:02:00,
2013-01-28 12:12:00,32.0,30.0,-100.00,North,10,0.0,0.0,93,0.00,,,-99.99,,2013-01-28 17:12:00,
2013-01-28 12:23:00,32.0,30.0,-100.00,North,10,0.0,0.0,93,0.00,,,-99.99,,2013-01-28 17:23:00,
2013-01-28 12:33:00,32.0,30.0,-100.00,North,10,0.0,0.0,93,0.00,,,-99.99,,2013-01-28 17:33:00,
2013-01-28 12:42:00,32.0,30.0,-100.00,North,10,0.0,0.0,93,0.00,,,-99.99,,2013-01-28 17:42:00,
2013-01-28 12:52:00,33.0,31.0,-100.00,NE,35,0.0,0.0,93,0.00,,,-99.99,,2013-01-28 17:52:00,
2013-01-28 13:03:00,33.0,31.0,-100.00,NE,35,0.0,0.0,93,0.00,,,-99.99,,2013-01-28 18:03:00,
2013-01-28 13:12:00,33.0,31.0,-100.00,NNE,20,0.0,0.0,93,0.00,,,-99.99,,2013-01-28 18:12:00,
2013-01-28 13:23:00,33.0,31.0,-100.00,NW,315,0.0,0.0,93,0.00,,,-99.99,,2013-01-28 18:23:00,
2013-01-28 13:33:00,33.0,31.0,-100.00,NW,315,0.0,0.0,93,0.00,,,-99.99,,2013-01-28 18:33:00,
2013-01-28 13:42:00,33.0,31.0,-100.00,North,0,0.0,0.0,93,0.00,,,-99.99,,2013-01-28 18:42:00,
2013-01-28 13:52:00,33.0,31.0,-100.00,NNE,15,0.0,0.0,93,0.00,,,-99.99,,2013-01-28 18:52:00,
2013-01-28 14:02:00,33.0,31.0,-100.00,NNE,15,0.0,0.0,93,0.00,,,-99.99,,2013-01-28 19:02:00,
2013-01-28 14:12:00,33.0,31.0,-100.00,ESE,120,0.0,0.0,93,0.00,,,-99.99,,2013-01-28 19:12:00,
2013-01-28 14:22:00,33.0,32.0,-100.00,SSE,160,0.0,0.0,93,0.01,,,-99.99,,2013-01-28 19:22:00,
2013-01-28 14:33:00,33.0,32.0,-100.00,SSE,160,0.0,0.0,93,0.01,,,-99.99,,2013-01-28 19:33:00,
2013-01-28 14:42:00,34.0,32.0,-100.00,ENE,65,0.0,0.0,93,0.00,,,-99.99,,2013-01-28 19:42:00,
2013-01-28 14:52:00,34.0,32.0,-100.00,ENE,65,0.0,0.0,93,0.00,,,-99.99,,2013-01-28 19:52:00,
2013-01-28 15:03:00,33.0,31.0,-100.00,NE,40,0.0,0.0,93,0.00,,,-99.99,,2013-01-28 20:03:00,
2013-01-28 15:12:00,33.0,32.0,-100.00,NNW,335,0.0,0.0,94,0.00,,,-99.99,,2013-01-28 20:12:00,
2013-01-28 15:22:00,34.0,32.0,-100.00,North,5,0.0,1.0,94,0.00,,,-99.99,,2013-01-28 20:22:00,
2013-01-28 15:33:00,34.0,32.0,-100.00,North,5,0.0,1.0,94,0.00,,,-99.99,,2013-01-28 20:33:00,
2013-01-28 15:42:00,34.0,32.0,-100.00,SSW,200,0.0,0.0,94,0.00,,,-99.99,,2013-01-28 20:42:00,
2013-01-28 15:52:00,34.0,32.0,-100.00,NNE,15,0.0,0.0,94,0.00,,,-99.99,,2013-01-28 20:52:00,
2013-01-28 16:03:00,34.0,32.0,-100.00,NNE,15,0.0,0.0,94,0.00,,,-99.99,,2013-01-28 21:03:00,
2013-01-28 16:12:00,34.0,32.0,-100.00,NNE,30,0.0,1.0,94,0.00,,,-99.99,,2013-01-28 21:12:00,
2013-01-28 16:22:00,34.0,32.0,-100.00,NE,35,0.0,0.0,94,0.00,,,-99.99,,2013-01-28 21:22:00,
2013-01-28 16:33:00,34.0,32.0,-100.00,NE,35,0.0,0.0,94,0.00,,,-99.99,,2013-01-28 21:33:00,
2013-01-28 16:43:00,33.0,32.0,-100.00,ENE,65,0.0,0.0,94,0.00,,,-99.99,,2013-01-28 21:43:00,
2013-01-28 16:52:00,33.0,32.0,-100.00,WNW,300,0.0,0.0,94,0.00,,,-99.99,,2013-01-28 21:52:00,
2013-01-28 17:02:00,33.0,32.0,-100.00,WNW,300,0.0,0.0,94,0.00,,,-99.99,,2013-01-28 22:02:00,
2013-01-28 17:12:00,33.0,32.0,-100.00,NE,40,0.0,1.0,94,0.00,,,-99.99,,2013-01-28 22:12:00,
2013-01-28 17:23:00,34.0,32.0,-100.00,North,0,1.0,2.0,94,0.00,,,-99.99,,2013-01-28 22:23:00,
2013-01-28 17:33:00,34.0,32.0,-100.00,North,0,1.0,2.0,94,0.00,,,-99.99,,2013-01-28 22:33:00,
2013-01-28 17:42:00,34.0,32.0,-100.00,North,0,1.0,2.0,94,0.00,,,-99.99,,2013-01-28 22:42:00,
2013-01-28 17:52:00,34.0,33.0,-100.00,WNW,295,1.0,2.0,94,0.00,,,-99.99,,2013-01-28 22:52:00,
2013-01-28 18:02:00,34.0,33.0,-100.00,WNW,295,1.0,2.0,94,0.00,,,-99.99,,2013-01-28 23:02:00,
2013-01-28 18:12:00,36.0,34.0,-100.00,WNW,300,1.0,2.0,94,0.00,,,-99.99,,2013-01-28 23:12:00,
2013-01-28 18:22:00,39.0,38.0,-100.00,SW,235,0.0,0.0,94,0.00,,,-99.99,,2013-01-28 23:22:00,
2013-01-28 18:32:00,39.0,38.0,-100.00,SW,235,0.0,0.0,94,0.00,,,-99.99,,2013-01-28 23:32:00,
2013-01-28 18:42:00,43.0,42.0,-100.00,West,270,0.0,1.0,94,0.00,,,-99.99,,2013-01-28 23:42:00,
2013-01-28 18:52:00,43.0,42.0,-100.00,West,270,0.0,1.0,94,0.00,,,-99.99,,2013-01-28 23:52:00,
2013-01-28 19:02:00,44.0,42.0,-100.00,South,190,1.0,2.0,94,0.00,,,-99.99,,2013-01-29 00:02:00,
2013-01-28 19:12:00,45.0,43.0,-100.00,West,260,1.0,2.0,94,0.00,,,-99.99,,2013-01-29 00:12:00,
2013-01-28 19:22:00,45.0,43.0,-100.00,WSW,255,1.0,2.0,94,0.00,,,-99.99,,2013-01-29 00:22:00,
2013-01-28 19:33:00,45.0,43.0,-100.00,WSW,255,1.0,2.0,94,0.00,,,-99.99,,2013-01-29 00:33:00,
2013-01-28 19:42:00,45.0,43.0,-100.00,SW,220,1.0,2.0,94,0.00,,,-99.99,,2013-01-29 00:42:00,
2013-01-28 19:52:00,45.0,43.0,-100.00,SW,220,1.0,2.0,94,0.00,,,-99.99,,2013-01-29 00:52:00,
2013-01-28 20:02:00,46.0,44.0,-100.00,WNW,295,1.0,1.0,94,0.00,,,-99.99,,2013-01-29 01:02:00,
2013-01-28 20:12:00,46.0,45.0,-100.00,WSW,250,0.0,0.0,94,0.00,,,-99.99,,2013-01-29 01:12:00,
2013-01-28 20:23:00,46.0,45.0,-100.00,SW,225,0.0,1.0,94,0.00,,,-99.99,,2013-01-29 01:23:00,
2013-01-28 20:32:00,46.0,45.0,-100.00,SW,225,0.0,1.0,94,0.00,,,-99.99,,2013-01-29 01:32:00,
2013-01-28 20:42:00,46.0,44.0,-100.00,SW,220,1.0,1.0,94,0.00,,,-99.99,,2013-01-29 01:42:00,
2013-01-28 20:52:00,47.0,45.0,-100.00,WSW,240,1.0,2.0,94,0.00,,,-99.99,,2013-01-29 01:52:00,
2013-01-28 21:02:00,47.0,45.0,-100.00,WSW,240,1.0,2.0,94,0.00,,,-99.99,,2013-01-29 02:02:00,
2013-01-28 21:12:00,48.0,46.0,-100.00,SW,215,2.0,6.0,94,0.00,,,-99.99,,2013-01-29 02:12:00,
2013-01-28 21:22:00,48.0,46.0,-100.00,South,190,0.0,1.0,94,0.00,,,-99.99,,2013-01-29 02:22:00,
2013-01-28 21:33:00,48.0,46.0,-100.00,South,190,0.0,1.0,94,0.00,,,-99.99,,2013-01-29 02:33:00,
2013-01-28 21:42:00,48.0,46.0,-100.00,SSW,200,1.0,2.0,94,0.00,,,-99.99,,2013-01-29 02:42:00,
2013-01-28 21:52:00,48.0,47.0,-100.00,SSW,195,2.0,4.0,94,0.00,,,-99.99,,2013-01-29 02:52:00,
2013-01-28 22:03:00,48.0,47.0,-100.00,SSW,195,2.0,4.0,94,0.00,,,-99.99,,2013-01-29 03:03:00,
2013-01-28 22:12:00,49.0,47.0,-100.00,SSE,160,6.0,7.0,94,0.00,,,-99.99,,2013-01-29 03:12:00,
2013-01-28 22:22:00,49.0,47.0,-100.00,SSE,160,6.0,7.0,94,0.00,,,-99.99,,2013-01-29 03:22:00,
2013-01-28 22:32:00,49.0,47.0,-100.00,SSW,200,2.0,3.0,94,0.00,,,-99.99,,2013-01-29 03:32:00,
2013-01-28 22:42:00,50.0,48.0,-100.00,SSE,155,4.0,6.0,94,0.00,,,-99.99,,2013-01-29 03:42:00,
2013-01-28 22:52:00,49.0,48.0,-100.00,SE,140,2.0,4.0,94,0.00,,,-99.99,,2013-01-29 03:52:00,
2013-01-28 23:02:00,49.0,48.0,-100.00,SE,140,2.0,4.0,94,0.00,,,-99.99,,2013-01-29 04:02:00,
2013-01-28 23:12:00,50.0,48.0,-100.00,South,180,3.0,5.0,94,0.00,,,-99.99,,2013-01-29 04:12:00,
2013-01-28 23:22:00,50.0,48.0,-100.00,South,180,3.0,5.0,94,0.00,,,-99.99,,2013-01-29 04:22:00,
2013-01-28 23:32:00,50.0,48.0,-100.00,South,180,2.0,4.0,93,0.00,,,-99.99,,2013-01-29 04:32:00,
2013-01-28 23:42:00,50.0,48.0,-100.00,SSW,200,2.0,4.0,93,0.00,,,-99.99,,2013-01-29 04:42:00,
2013-01-28 23:52:00,50.0,48.0,-100.00,SSW,200,2.0,4.0,93,0.00,,,-99.99,,2013-01-29 04:52:00,